#datetime,building,power
2023-11-14T00:00:00,mcc,45.44
2023-11-14T00:01:00,mcc,42.84
2023-11-14T00:02:00,mcc,46.90
2023-11-14T00:03:00,mcc,44.14
2023-11-14T00:04:00,mcc,40.42
2023-11-14T00:05:00,mcc,41.60
2023-11-14T00:06:00,mcc,39.22
2023-11-14T00:07:00,mcc,35.85
2023-11-14T00:08:00,mcc,37.84
2023-11-14T00:09:00,mcc,38.15
2023-11-14T00:10:00,mcc,38.86
2023-11-14T00:11:00,mcc,39.04
2023-11-14T00:12:00,mcc,35.99
2023-11-14T00:13:00,mcc,36.96
2023-11-14T00:14:00,mcc,35.28
2023-11-14T00:15:00,mcc,34.82
2023-11-14T00:16:00,mcc,37.49
2023-11-14T00:17:00,mcc,42.83
2023-11-14T00:18:00,mcc,30.99
2023-11-14T00:19:00,mcc,31.93
2023-11-14T00:20:00,mcc,30.12
2023-11-14T00:21:00,mcc,41.46
2023-11-14T00:22:00,mcc,28.52
2023-11-14T00:23:00,mcc,30.31
2023-11-14T00:24:00,mcc,31.58
2023-11-14T00:25:00,mcc,32.70
2023-11-14T00:26:00,mcc,35.86
2023-11-14T00:27:00,mcc,36.12
2023-11-14T00:28:00,mcc,33.86
2023-11-14T00:29:00,mcc,32.14
2023-11-14T00:30:00,mcc,34.01
2023-11-14T00:31:00,mcc,29.37
2023-11-14T00:32:00,mcc,29.56
2023-11-14T00:33:00,mcc,34.01
2023-11-14T00:34:00,mcc,30.38
2023-11-14T00:35:00,mcc,29.57
2023-11-14T00:36:00,mcc,31.77
2023-11-14T00:37:00,mcc,37.71
2023-11-14T00:38:00,mcc,32.26
2023-11-14T00:39:00,mcc,31.16
2023-11-14T00:40:00,mcc,34.50
2023-11-14T00:41:00,mcc,31.80
2023-11-14T00:42:00,mcc,33.37
2023-11-14T00:43:00,mcc,28.61
2023-11-14T00:44:00,mcc,30.43
2023-11-14T00:45:00,mcc,29.93
2023-11-14T00:46:00,mcc,29.06
2023-11-14T00:47:00,mcc,30.84
2023-11-14T00:48:00,mcc,32.94
2023-11-14T00:49:00,mcc,32.35
2023-11-14T00:50:00,mcc,35.08
2023-11-14T00:51:00,mcc,34.84
2023-11-14T00:52:00,mcc,35.99
2023-11-14T00:53:00,mcc,36.76
2023-11-14T00:54:00,mcc,35.97
2023-11-14T00:55:00,mcc,33.80
2023-11-14T00:56:00,mcc,42.35
2023-11-14T00:57:00,mcc,32.62
2023-11-14T00:58:00,mcc,33.15
2023-11-14T00:59:00,mcc,31.00
2023-11-14T01:00:00,mcc,32.43
2023-11-14T01:01:00,mcc,32.71
2023-11-14T01:02:00,mcc,33.36
2023-11-14T01:03:00,mcc,35.57
2023-11-14T01:04:00,mcc,34.39
2023-11-14T01:05:00,mcc,35.51
2023-11-14T01:06:00,mcc,36.80
2023-11-14T01:07:00,mcc,36.49
2023-11-14T01:08:00,mcc,36.53
2023-11-14T01:09:00,mcc,52.66
2023-11-14T01:10:00,mcc,35.54
2023-11-14T01:11:00,mcc,35.70
2023-11-14T01:12:00,mcc,35.92
2023-11-14T01:13:00,mcc,33.09
2023-11-14T01:14:00,mcc,34.73
2023-11-14T01:15:00,mcc,52.66
2023-11-14T01:16:00,mcc,43.18
2023-11-14T01:17:00,mcc,42.57
2023-11-14T01:18:00,mcc,43.28
2023-11-14T01:19:00,mcc,35.86
2023-11-14T01:20:00,mcc,33.76
2023-11-14T01:21:00,mcc,34.43
2023-11-14T01:22:00,mcc,32.94
2023-11-14T01:23:00,mcc,32.52
2023-11-14T01:24:00,mcc,33.00
2023-11-14T01:25:00,mcc,34.28
2023-11-14T01:26:00,mcc,35.41
2023-11-14T01:27:00,mcc,32.22
2023-11-14T01:28:00,mcc,32.27
2023-11-14T01:29:00,mcc,32.97
2023-11-14T01:30:00,mcc,31.55
2023-11-14T01:31:00,mcc,31.85
2023-11-14T01:32:00,mcc,35.40
2023-11-14T01:33:00,mcc,32.17
2023-11-14T01:34:00,mcc,32.93
2023-11-14T01:35:00,mcc,37.18
2023-11-14T01:36:00,mcc,32.20
2023-11-14T01:37:00,mcc,34.70
2023-11-14T01:38:00,mcc,33.50
2023-11-14T01:39:00,mcc,33.67
2023-11-14T01:40:00,mcc,35.03
2023-11-14T01:41:00,mcc,34.30
2023-11-14T01:42:00,mcc,34.94
2023-11-14T01:43:00,mcc,39.24
2023-11-14T01:44:00,mcc,36.69
2023-11-14T01:45:00,mcc,35.72
2023-11-14T01:46:00,mcc,38.45
2023-11-14T01:47:00,mcc,35.66
2023-11-14T01:48:00,mcc,34.83
2023-11-14T01:49:00,mcc,47.36
2023-11-14T01:50:00,mcc,44.64
2023-11-14T01:51:00,mcc,31.88
2023-11-14T01:52:00,mcc,33.24
2023-11-14T01:53:00,mcc,30.77
2023-11-14T01:54:00,mcc,33.68
2023-11-14T01:55:00,mcc,31.38
2023-11-14T01:56:00,mcc,33.90
2023-11-14T01:57:00,mcc,34.45
2023-11-14T01:58:00,mcc,33.62
2023-11-14T01:59:00,mcc,32.84
2023-11-14T02:00:00,mcc,34.61
2023-11-14T02:01:00,mcc,31.48
2023-11-14T02:02:00,mcc,30.69
2023-11-14T02:03:00,mcc,31.27
2023-11-14T02:04:00,mcc,30.36
2023-11-14T02:05:00,mcc,33.47
2023-11-14T02:06:00,mcc,33.08
2023-11-14T02:07:00,mcc,32.40
2023-11-14T02:08:00,mcc,32.20
2023-11-14T02:09:00,mcc,33.90
2023-11-14T02:10:00,mcc,35.86
2023-11-14T02:11:00,mcc,32.90
2023-11-14T02:12:00,mcc,33.43
2023-11-14T02:13:00,mcc,32.98
2023-11-14T02:14:00,mcc,41.97
2023-11-14T02:15:00,mcc,32.42
2023-11-14T02:16:00,mcc,31.39
2023-11-14T02:17:00,mcc,34.47
2023-11-14T02:18:00,mcc,32.88
2023-11-14T02:19:00,mcc,34.46
2023-11-14T02:20:00,mcc,37.14
2023-11-14T02:21:00,mcc,33.57
2023-11-14T02:22:00,mcc,34.58
2023-11-14T02:23:00,mcc,38.07
2023-11-14T02:24:00,mcc,33.17
2023-11-14T02:25:00,mcc,32.76
2023-11-14T02:26:00,mcc,30.48
2023-11-14T02:27:00,mcc,30.88
2023-11-14T02:28:00,mcc,30.48
2023-11-14T02:29:00,mcc,31.84
2023-11-14T02:30:00,mcc,31.77
2023-11-14T02:31:00,mcc,31.83
2023-11-14T02:32:00,mcc,34.27
2023-11-14T02:33:00,mcc,34.23
2023-11-14T02:34:00,mcc,45.66
2023-11-14T02:35:00,mcc,46.49
2023-11-14T02:36:00,mcc,36.27
2023-11-14T02:37:00,mcc,38.89
2023-11-14T02:38:00,mcc,35.64
2023-11-14T02:39:00,mcc,36.34
2023-11-14T02:40:00,mcc,38.30
2023-11-14T02:41:00,mcc,32.99
2023-11-14T02:42:00,mcc,32.47
2023-11-14T02:43:00,mcc,34.32
2023-11-14T02:44:00,mcc,32.04
2023-11-14T02:45:00,mcc,35.67
2023-11-14T02:46:00,mcc,35.48
2023-11-14T02:47:00,mcc,32.62
2023-11-14T02:48:00,mcc,33.95
2023-11-14T02:49:00,mcc,32.05
2023-11-14T02:50:00,mcc,32.59
2023-11-14T02:51:00,mcc,35.94
2023-11-14T02:52:00,mcc,33.60
2023-11-14T02:53:00,mcc,42.17
2023-11-14T02:54:00,mcc,34.57
2023-11-14T02:55:00,mcc,32.75
2023-11-14T02:56:00,mcc,33.88
2023-11-14T02:57:00,mcc,32.86
2023-11-14T02:58:00,mcc,32.32
2023-11-14T02:59:00,mcc,32.44
2023-11-14T03:00:00,mcc,31.78
2023-11-14T03:01:00,mcc,30.78
2023-11-14T03:02:00,mcc,29.32
2023-11-14T03:03:00,mcc,30.65
2023-11-14T03:04:00,mcc,29.30
2023-11-14T03:05:00,mcc,29.15
2023-11-14T03:06:00,mcc,31.07
2023-11-14T03:07:00,mcc,32.48
2023-11-14T03:08:00,mcc,31.85
2023-11-14T03:09:00,mcc,30.04
2023-11-14T03:10:00,mcc,30.81
2023-11-14T03:11:00,mcc,31.59
2023-11-14T03:12:00,mcc,38.67
2023-11-14T03:13:00,mcc,30.85
2023-11-14T03:14:00,mcc,34.51
2023-11-14T03:15:00,mcc,32.21
2023-11-14T03:16:00,mcc,31.87
2023-11-14T03:17:00,mcc,45.99
2023-11-14T03:18:00,mcc,32.41
2023-11-14T03:19:00,mcc,31.78
2023-11-14T03:20:00,mcc,32.10
2023-11-14T03:21:00,mcc,32.61
2023-11-14T03:22:00,mcc,35.14
2023-11-14T03:23:00,mcc,37.11
2023-11-14T03:24:00,mcc,31.78
2023-11-14T03:25:00,mcc,31.64
2023-11-14T03:26:00,mcc,32.92
2023-11-14T03:27:00,mcc,31.23
2023-11-14T03:28:00,mcc,32.83
2023-11-14T03:29:00,mcc,36.48
2023-11-14T03:30:00,mcc,35.98
2023-11-14T03:31:00,mcc,36.19
2023-11-14T03:32:00,mcc,42.97
2023-11-14T03:33:00,mcc,35.59
2023-11-14T03:34:00,mcc,36.90
2023-11-14T03:35:00,mcc,35.07
2023-11-14T03:36:00,mcc,32.34
2023-11-14T03:37:00,mcc,34.70
2023-11-14T03:38:00,mcc,28.45
2023-11-14T03:39:00,mcc,28.19
2023-11-14T03:40:00,mcc,30.11
2023-11-14T03:41:00,mcc,27.90
2023-11-14T03:42:00,mcc,32.50
2023-11-14T03:43:00,mcc,35.23
2023-11-14T03:44:00,mcc,30.23
2023-11-14T03:45:00,mcc,29.97
2023-11-14T03:46:00,mcc,45.28
2023-11-14T03:47:00,mcc,43.52
2023-11-14T03:48:00,mcc,44.50
2023-11-14T03:49:00,mcc,36.86
2023-11-14T03:50:00,mcc,37.73
2023-11-14T03:51:00,mcc,36.22
2023-11-14T03:52:00,mcc,42.10
2023-11-14T03:53:00,mcc,31.52
2023-11-14T03:54:00,mcc,30.71
2023-11-14T03:55:00,mcc,32.54
2023-11-14T03:56:00,mcc,32.05
2023-11-14T03:57:00,mcc,32.28
2023-11-14T03:58:00,mcc,44.17
2023-11-14T03:59:00,mcc,32.07
2023-11-14T04:00:00,mcc,33.92
2023-11-14T04:01:00,mcc,31.89
2023-11-14T04:02:00,mcc,30.80
2023-11-14T04:03:00,mcc,32.84
2023-11-14T04:04:00,mcc,32.85
2023-11-14T04:05:00,mcc,32.73
2023-11-14T04:06:00,mcc,34.66
2023-11-14T04:07:00,mcc,30.82
2023-11-14T04:08:00,mcc,43.96
2023-11-14T04:09:00,mcc,37.07
2023-11-14T04:10:00,mcc,33.98
2023-11-14T04:11:00,mcc,38.52
2023-11-14T04:12:00,mcc,41.68
2023-11-14T04:13:00,mcc,31.51
2023-11-14T04:14:00,mcc,34.64
2023-11-14T04:15:00,mcc,32.49
2023-11-14T04:16:00,mcc,33.71
2023-11-14T04:17:00,mcc,37.00
2023-11-14T04:18:00,mcc,32.45
2023-11-14T04:19:00,mcc,30.78
2023-11-14T04:20:00,mcc,32.73
2023-11-14T04:21:00,mcc,33.19
2023-11-14T04:22:00,mcc,34.32
2023-11-14T04:23:00,mcc,32.90
2023-11-14T04:24:00,mcc,35.98
2023-11-14T04:25:00,mcc,32.57
2023-11-14T04:26:00,mcc,32.70
2023-11-14T04:27:00,mcc,32.17
2023-11-14T04:28:00,mcc,30.90
2023-11-14T04:29:00,mcc,30.38
2023-11-14T04:30:00,mcc,32.51
2023-11-14T04:31:00,mcc,35.83
2023-11-14T04:32:00,mcc,31.88
2023-11-14T04:33:00,mcc,37.48
2023-11-14T04:34:00,mcc,40.05
2023-11-14T04:35:00,mcc,31.54
2023-11-14T04:36:00,mcc,34.42
2023-11-14T04:37:00,mcc,35.24
2023-11-14T04:38:00,mcc,33.69
2023-11-14T04:39:00,mcc,45.63
2023-11-14T04:40:00,mcc,37.49
2023-11-14T04:41:00,mcc,35.48
2023-11-14T04:42:00,mcc,34.80
2023-11-14T04:43:00,mcc,34.15
2023-11-14T04:44:00,mcc,32.88
2023-11-14T04:45:00,mcc,31.26
2023-11-14T04:46:00,mcc,33.38
2023-11-14T04:47:00,mcc,32.24
2023-11-14T04:48:00,mcc,34.21
2023-11-14T04:49:00,mcc,35.56
2023-11-14T04:50:00,mcc,33.00
2023-11-14T04:51:00,mcc,42.30
2023-11-14T04:52:00,mcc,33.99
2023-11-14T04:53:00,mcc,35.37
2023-11-14T04:54:00,mcc,34.01
2023-11-14T04:55:00,mcc,35.67
2023-11-14T04:56:00,mcc,35.17
2023-11-14T04:57:00,mcc,33.30
2023-11-14T04:58:00,mcc,32.22
2023-11-14T04:59:00,mcc,30.94
2023-11-14T05:00:00,mcc,35.87
2023-11-14T05:01:00,mcc,34.94
2023-11-14T05:02:00,mcc,34.89
2023-11-14T05:03:00,mcc,35.72
2023-11-14T05:04:00,mcc,38.66
2023-11-14T05:05:00,mcc,47.14
2023-11-14T05:06:00,mcc,48.70
2023-11-14T05:07:00,mcc,49.51
2023-11-14T05:08:00,mcc,52.26
2023-11-14T05:09:00,mcc,50.05
2023-11-14T05:10:00,mcc,49.53
2023-11-14T05:11:00,mcc,38.70
2023-11-14T05:12:00,mcc,42.07
2023-11-14T05:13:00,mcc,40.16
2023-11-14T05:14:00,mcc,40.97
2023-11-14T05:15:00,mcc,42.32
2023-11-14T05:16:00,mcc,39.66
2023-11-14T05:17:00,mcc,41.88
2023-11-14T05:18:00,mcc,39.44
2023-11-14T05:19:00,mcc,41.81
2023-11-14T05:20:00,mcc,53.54
2023-11-14T05:21:00,mcc,43.16
2023-11-14T05:22:00,mcc,41.05
2023-11-14T05:23:00,mcc,43.00
2023-11-14T05:24:00,mcc,33.97
2023-11-14T05:25:00,mcc,34.03
2023-11-14T05:26:00,mcc,34.79
2023-11-14T05:27:00,mcc,33.46
2023-11-14T05:28:00,mcc,35.14
2023-11-14T05:29:00,mcc,50.19
2023-11-14T05:30:00,mcc,37.54
2023-11-14T05:31:00,mcc,43.76
2023-11-14T05:32:00,mcc,36.96
2023-11-14T05:33:00,mcc,38.64
2023-11-14T05:34:00,mcc,34.85
2023-11-14T05:35:00,mcc,37.26
2023-11-14T05:36:00,mcc,36.90
2023-11-14T05:37:00,mcc,33.76
2023-11-14T05:38:00,mcc,34.43
2023-11-14T05:39:00,mcc,32.59
2023-11-14T05:40:00,mcc,32.45
2023-11-14T05:41:00,mcc,33.17
2023-11-14T05:42:00,mcc,33.94
2023-11-14T05:43:00,mcc,36.74
2023-11-14T05:44:00,mcc,34.81
2023-11-14T05:45:00,mcc,34.40
2023-11-14T05:46:00,mcc,37.49
2023-11-14T05:47:00,mcc,34.89
2023-11-14T05:48:00,mcc,34.44
2023-11-14T05:49:00,mcc,37.59
2023-11-14T05:50:00,mcc,34.34
2023-11-14T05:51:00,mcc,34.55
2023-11-14T05:52:00,mcc,37.46
2023-11-14T05:53:00,mcc,36.53
2023-11-14T05:54:00,mcc,36.10
2023-11-14T05:55:00,mcc,39.25
2023-11-14T05:56:00,mcc,36.69
2023-11-14T05:57:00,mcc,36.51
2023-11-14T05:58:00,mcc,40.19
2023-11-14T05:59:00,mcc,36.61
2023-11-14T06:00:00,mcc,35.61
2023-11-14T06:01:00,mcc,40.91
2023-11-14T06:02:00,mcc,37.60
2023-11-14T06:03:00,mcc,36.73
2023-11-14T06:04:00,mcc,49.15
2023-11-14T06:05:00,mcc,35.01
2023-11-14T06:06:00,mcc,34.35
2023-11-14T06:07:00,mcc,37.28
2023-11-14T06:08:00,mcc,36.76
2023-11-14T06:09:00,mcc,38.05
2023-11-14T06:10:00,mcc,44.55
2023-11-14T06:11:00,mcc,38.50
2023-11-14T06:12:00,mcc,39.69
2023-11-14T06:13:00,mcc,40.64
2023-11-14T06:14:00,mcc,38.93
2023-11-14T06:15:00,mcc,40.86
2023-11-14T06:16:00,mcc,38.83
2023-11-14T06:17:00,mcc,37.62
2023-11-14T06:18:00,mcc,56.19
2023-11-14T06:19:00,mcc,49.50
2023-11-14T06:20:00,mcc,48.86
2023-11-14T06:21:00,mcc,48.45
2023-11-14T06:22:00,mcc,43.86
2023-11-14T06:23:00,mcc,43.97
2023-11-14T06:24:00,mcc,46.80
2023-11-14T06:25:00,mcc,47.47
2023-11-14T06:26:00,mcc,45.30
2023-11-14T06:27:00,mcc,45.76
2023-11-14T06:28:00,mcc,42.73
2023-11-14T06:29:00,mcc,43.41
2023-11-14T06:30:00,mcc,44.75
2023-11-14T06:31:00,mcc,43.72
2023-11-14T06:32:00,mcc,44.19
2023-11-14T06:33:00,mcc,57.35
2023-11-14T06:34:00,mcc,54.50
2023-11-14T06:35:00,mcc,55.03
2023-11-14T06:36:00,mcc,54.24
2023-11-14T06:37:00,mcc,54.44
2023-11-14T06:38:00,mcc,50.65
2023-11-14T06:39:00,mcc,52.64
2023-11-14T06:40:00,mcc,49.23
2023-11-14T06:41:00,mcc,50.69
2023-11-14T06:42:00,mcc,51.89
2023-11-14T06:43:00,mcc,46.26
2023-11-14T06:44:00,mcc,46.65
2023-11-14T06:45:00,mcc,51.48
2023-11-14T06:46:00,mcc,48.76
2023-11-14T06:47:00,mcc,41.54
2023-11-14T06:48:00,mcc,52.54
2023-11-14T06:49:00,mcc,43.34
2023-11-14T06:50:00,mcc,41.98
2023-11-14T06:51:00,mcc,41.44
2023-11-14T06:52:00,mcc,41.14
2023-11-14T06:53:00,mcc,41.13
2023-11-14T06:54:00,mcc,42.02
2023-11-14T06:55:00,mcc,45.49
2023-11-14T06:56:00,mcc,55.67
2023-11-14T06:57:00,mcc,45.95
2023-11-14T06:58:00,mcc,50.51
2023-11-14T06:59:00,mcc,48.84
2023-11-14T07:00:00,mcc,41.61
2023-11-14T07:01:00,mcc,63.79
2023-11-14T07:02:00,mcc,52.37
2023-11-14T07:03:00,mcc,50.11
2023-11-14T07:04:00,mcc,50.71
2023-11-14T07:05:00,mcc,49.19
2023-11-14T07:06:00,mcc,51.18
2023-11-14T07:07:00,mcc,51.95
2023-11-14T07:08:00,mcc,59.26
2023-11-14T07:09:00,mcc,60.07
2023-11-14T07:10:00,mcc,76.50
2023-11-14T07:11:00,mcc,59.94
2023-11-14T07:12:00,mcc,52.38
2023-11-14T07:13:00,mcc,56.65
2023-11-14T07:14:00,mcc,53.92
2023-11-14T07:15:00,mcc,50.77
2023-11-14T07:16:00,mcc,59.24
2023-11-14T07:17:00,mcc,47.82
2023-11-14T07:18:00,mcc,47.47
2023-11-14T07:19:00,mcc,51.39
2023-11-14T07:20:00,mcc,56.59
2023-11-14T07:21:00,mcc,58.37
2023-11-14T07:22:00,mcc,66.42
2023-11-14T07:23:00,mcc,51.28
2023-11-14T07:24:00,mcc,52.15
2023-11-14T07:25:00,mcc,62.36
2023-11-14T07:26:00,mcc,59.51
2023-11-14T07:27:00,mcc,61.82
2023-11-14T07:28:00,mcc,62.35
2023-11-14T07:29:00,mcc,66.52
2023-11-14T07:30:00,mcc,65.12
2023-11-14T07:31:00,mcc,70.51
2023-11-14T07:32:00,mcc,69.53
2023-11-14T07:33:00,mcc,95.25
2023-11-14T07:34:00,mcc,83.87
2023-11-14T07:35:00,mcc,89.17
2023-11-14T07:36:00,mcc,73.21
2023-11-14T07:37:00,mcc,61.59
2023-11-14T07:38:00,mcc,61.06
2023-11-14T07:39:00,mcc,68.21
2023-11-14T07:40:00,mcc,61.99
2023-11-14T07:41:00,mcc,62.71
2023-11-14T07:42:00,mcc,62.12
2023-11-14T07:43:00,mcc,62.73
2023-11-14T07:44:00,mcc,64.20
2023-11-14T07:45:00,mcc,68.08
2023-11-14T07:46:00,mcc,61.96
2023-11-14T07:47:00,mcc,57.89
2023-11-14T07:48:00,mcc,64.87
2023-11-14T07:49:00,mcc,66.18
2023-11-14T07:50:00,mcc,56.94
2023-11-14T07:51:00,mcc,51.77
2023-11-14T07:52:00,mcc,60.14
2023-11-14T07:53:00,mcc,61.72
2023-11-14T07:54:00,mcc,64.87
2023-11-14T07:55:00,mcc,64.82
2023-11-14T07:56:00,mcc,65.00
2023-11-14T07:57:00,mcc,67.68
2023-11-14T07:58:00,mcc,56.41
2023-11-14T07:59:00,mcc,59.20
2023-11-14T08:00:00,mcc,65.84
2023-11-14T08:01:00,mcc,71.06
2023-11-14T08:02:00,mcc,60.02
2023-11-14T08:03:00,mcc,57.70
2023-11-14T08:04:00,mcc,55.04
2023-11-14T08:05:00,mcc,56.29
2023-11-14T08:06:00,mcc,63.71
2023-11-14T08:07:00,mcc,52.89
2023-11-14T08:08:00,mcc,62.41
2023-11-14T08:09:00,mcc,55.75
2023-11-14T08:10:00,mcc,57.94
2023-11-14T08:11:00,mcc,53.28
2023-11-14T08:12:00,mcc,58.90
2023-11-14T08:13:00,mcc,54.93
2023-11-14T08:14:00,mcc,63.32
2023-11-14T08:15:00,mcc,59.04
2023-11-14T08:16:00,mcc,55.25
2023-11-14T08:17:00,mcc,55.62
2023-11-14T08:18:00,mcc,59.04
2023-11-14T08:19:00,mcc,57.71
2023-11-14T08:20:00,mcc,72.27
2023-11-14T08:21:00,mcc,67.83
2023-11-14T08:22:00,mcc,70.78
2023-11-14T08:23:00,mcc,70.17
2023-11-14T08:24:00,mcc,71.17
2023-11-14T08:25:00,mcc,91.56
2023-11-14T08:26:00,mcc,87.08
2023-11-14T08:27:00,mcc,63.33
2023-11-14T08:28:00,mcc,62.42
2023-11-14T08:29:00,mcc,61.79
2023-11-14T08:30:00,mcc,79.13
2023-11-14T08:31:00,mcc,66.44
2023-11-14T08:32:00,mcc,84.05
2023-11-14T08:33:00,mcc,69.27
2023-11-14T08:34:00,mcc,65.75
2023-11-14T08:35:00,mcc,67.30
2023-11-14T08:36:00,mcc,60.64
2023-11-14T08:37:00,mcc,58.07
2023-11-14T08:38:00,mcc,64.11
2023-11-14T08:39:00,mcc,59.77
2023-11-14T08:40:00,mcc,74.67
2023-11-14T08:41:00,mcc,61.13
2023-11-14T08:42:00,mcc,62.63
2023-11-14T08:43:00,mcc,61.26
2023-11-14T08:44:00,mcc,78.15
2023-11-14T08:45:00,mcc,59.56
2023-11-14T08:46:00,mcc,68.93
2023-11-14T08:47:00,mcc,69.19
2023-11-14T08:48:00,mcc,66.55
2023-11-14T08:49:00,mcc,67.74
2023-11-14T08:50:00,mcc,69.67
2023-11-14T08:51:00,mcc,67.14
2023-11-14T08:52:00,mcc,66.93
2023-11-14T08:53:00,mcc,64.70
2023-11-14T08:54:00,mcc,70.98
2023-11-14T08:55:00,mcc,74.44
2023-11-14T08:56:00,mcc,67.77
2023-11-14T08:57:00,mcc,70.72
2023-11-14T08:58:00,mcc,70.59
2023-11-14T08:59:00,mcc,61.75
2023-11-14T09:00:00,mcc,63.66
2023-11-14T09:01:00,mcc,59.74
2023-11-14T09:02:00,mcc,67.77
2023-11-14T09:03:00,mcc,59.38
2023-11-14T09:04:00,mcc,66.24
2023-11-14T09:05:00,mcc,66.69
2023-11-14T09:06:00,mcc,67.62
2023-11-14T09:07:00,mcc,63.93
2023-11-14T09:08:00,mcc,60.64
2023-11-14T09:09:00,mcc,57.26
2023-11-14T09:10:00,mcc,71.30
2023-11-14T09:11:00,mcc,58.17
2023-11-14T09:12:00,mcc,63.59
2023-11-14T09:13:00,mcc,61.13
2023-11-14T09:14:00,mcc,68.29
2023-11-14T09:15:00,mcc,58.65
2023-11-14T09:16:00,mcc,58.87
2023-11-14T09:17:00,mcc,67.01
2023-11-14T09:18:00,mcc,60.36
2023-11-14T09:19:00,mcc,65.41
2023-11-14T09:20:00,mcc,72.80
2023-11-14T09:21:00,mcc,74.24
2023-11-14T09:22:00,mcc,60.45
2023-11-14T09:23:00,mcc,62.26
2023-11-14T09:24:00,mcc,67.05
2023-11-14T09:25:00,mcc,67.97
2023-11-14T09:26:00,mcc,68.80
2023-11-14T09:27:00,mcc,59.78
2023-11-14T09:28:00,mcc,58.50
2023-11-14T09:29:00,mcc,60.14
2023-11-14T09:30:00,mcc,59.14
2023-11-14T09:31:00,mcc,61.32
2023-11-14T09:32:00,mcc,62.93
2023-11-14T09:33:00,mcc,62.32
2023-11-14T09:34:00,mcc,75.78
2023-11-14T09:35:00,mcc,69.28
2023-11-14T09:36:00,mcc,61.79
2023-11-14T09:37:00,mcc,62.23
2023-11-14T09:38:00,mcc,64.57
2023-11-14T09:39:00,mcc,62.08
2023-11-14T09:40:00,mcc,67.62
2023-11-14T09:41:00,mcc,63.28
2023-11-14T09:42:00,mcc,61.07
2023-11-14T09:43:00,mcc,66.43
2023-11-14T09:44:00,mcc,63.40
2023-11-14T09:45:00,mcc,60.44
2023-11-14T09:46:00,mcc,61.48
2023-11-14T09:47:00,mcc,62.59
2023-11-14T09:48:00,mcc,63.57
2023-11-14T09:49:00,mcc,62.65
2023-11-14T09:50:00,mcc,62.83
2023-11-14T09:51:00,mcc,61.42
2023-11-14T09:52:00,mcc,61.85
2023-11-14T09:53:00,mcc,61.02
2023-11-14T09:54:00,mcc,62.20
2023-11-14T09:55:00,mcc,72.70
2023-11-14T09:56:00,mcc,62.92
2023-11-14T09:57:00,mcc,57.60
2023-11-14T09:58:00,mcc,63.13
2023-11-14T09:59:00,mcc,59.40
2023-11-14T10:00:00,mcc,58.36
2023-11-14T10:01:00,mcc,67.72
2023-11-14T10:02:00,mcc,57.56
2023-11-14T10:03:00,mcc,60.40
2023-11-14T10:04:00,mcc,59.29
2023-11-14T10:05:00,mcc,59.91
2023-11-14T10:06:00,mcc,60.33
2023-11-14T10:07:00,mcc,83.06
2023-11-14T10:08:00,mcc,59.30
2023-11-14T10:09:00,mcc,59.36
2023-11-14T10:10:00,mcc,61.01
2023-11-14T10:11:00,mcc,58.20
2023-11-14T10:12:00,mcc,61.19
2023-11-14T10:13:00,mcc,64.37
2023-11-14T10:14:00,mcc,59.64
2023-11-14T10:15:00,mcc,58.82
2023-11-14T10:16:00,mcc,58.76
2023-11-14T10:17:00,mcc,62.44
2023-11-14T10:18:00,mcc,70.72
2023-11-14T10:19:00,mcc,72.20
2023-11-14T10:20:00,mcc,60.68
2023-11-14T10:21:00,mcc,62.31
2023-11-14T10:22:00,mcc,60.55
2023-11-14T10:23:00,mcc,61.32
2023-11-14T10:24:00,mcc,59.06
2023-11-14T10:25:00,mcc,67.47
2023-11-14T10:26:00,mcc,60.74
2023-11-14T10:27:00,mcc,58.51
2023-11-14T10:28:00,mcc,56.99
2023-11-14T10:29:00,mcc,56.82
2023-11-14T10:30:00,mcc,58.21
2023-11-14T10:31:00,mcc,82.61
2023-11-14T10:32:00,mcc,59.48
2023-11-14T10:33:00,mcc,62.24
2023-11-14T10:34:00,mcc,73.98
2023-11-14T10:35:00,mcc,61.66
2023-11-14T10:36:00,mcc,77.60
2023-11-14T10:37:00,mcc,76.13
2023-11-14T10:38:00,mcc,82.73
2023-11-14T10:39:00,mcc,65.64
2023-11-14T10:40:00,mcc,77.18
2023-11-14T10:41:00,mcc,60.66
2023-11-14T10:42:00,mcc,57.36
2023-11-14T10:43:00,mcc,83.97
2023-11-14T10:44:00,mcc,60.73
2023-11-14T10:45:00,mcc,58.85
2023-11-14T10:46:00,mcc,59.25
2023-11-14T10:47:00,mcc,64.02
2023-11-14T10:48:00,mcc,62.46
2023-11-14T10:49:00,mcc,64.47
2023-11-14T10:50:00,mcc,59.67
2023-11-14T10:51:00,mcc,62.87
2023-11-14T10:52:00,mcc,65.54
2023-11-14T10:53:00,mcc,60.19
2023-11-14T10:54:00,mcc,63.97
2023-11-14T10:55:00,mcc,83.62
2023-11-14T10:56:00,mcc,63.35
2023-11-14T10:57:00,mcc,64.33
2023-11-14T10:58:00,mcc,64.26
2023-11-14T10:59:00,mcc,63.79
2023-11-14T11:00:00,mcc,60.25
2023-11-14T11:01:00,mcc,67.19
2023-11-14T11:02:00,mcc,58.41
2023-11-14T11:03:00,mcc,56.93
2023-11-14T11:04:00,mcc,54.91
2023-11-14T11:05:00,mcc,55.33
2023-11-14T11:06:00,mcc,57.71
2023-11-14T11:07:00,mcc,61.90
2023-11-14T11:08:00,mcc,61.47
2023-11-14T11:09:00,mcc,63.24
2023-11-14T11:10:00,mcc,65.19
2023-11-14T11:11:00,mcc,62.44
2023-11-14T11:12:00,mcc,62.09
2023-11-14T11:13:00,mcc,60.09
2023-11-14T11:14:00,mcc,72.19
2023-11-14T11:15:00,mcc,66.73
2023-11-14T11:16:00,mcc,75.56
2023-11-14T11:17:00,mcc,84.44
2023-11-14T11:18:00,mcc,73.84
2023-11-14T11:19:00,mcc,83.54
2023-11-14T11:20:00,mcc,69.20
2023-11-14T11:21:00,mcc,60.11
2023-11-14T11:22:00,mcc,68.87
2023-11-14T11:23:00,mcc,72.31
2023-11-14T11:24:00,mcc,67.99
2023-11-14T11:25:00,mcc,70.85
2023-11-14T11:26:00,mcc,62.92
2023-11-14T11:27:00,mcc,61.35
2023-11-14T11:28:00,mcc,60.49
2023-11-14T11:29:00,mcc,61.49
2023-11-14T11:30:00,mcc,62.65
2023-11-14T11:31:00,mcc,72.31
2023-11-14T11:32:00,mcc,67.84
2023-11-14T11:33:00,mcc,84.25
2023-11-14T11:34:00,mcc,61.02
2023-11-14T11:35:00,mcc,63.38
2023-11-14T11:36:00,mcc,62.86
2023-11-14T11:37:00,mcc,69.05
2023-11-14T11:38:00,mcc,64.16
2023-11-14T11:39:00,mcc,68.26
2023-11-14T11:40:00,mcc,75.22
2023-11-14T11:41:00,mcc,66.16
2023-11-14T11:42:00,mcc,74.39
2023-11-14T11:43:00,mcc,64.58
2023-11-14T11:44:00,mcc,62.05
2023-11-14T11:45:00,mcc,66.99
2023-11-14T11:46:00,mcc,63.33
2023-11-14T11:47:00,mcc,61.68
2023-11-14T11:48:00,mcc,58.96
2023-11-14T11:49:00,mcc,69.29
2023-11-14T11:50:00,mcc,64.41
2023-11-14T11:51:00,mcc,58.48
2023-11-14T11:52:00,mcc,74.95
2023-11-14T11:53:00,mcc,70.70
2023-11-14T11:54:00,mcc,69.81
2023-11-14T11:55:00,mcc,75.97
2023-11-14T11:56:00,mcc,58.35
2023-11-14T11:57:00,mcc,65.40
2023-11-14T11:58:00,mcc,61.54
2023-11-14T11:59:00,mcc,71.53
2023-11-14T12:00:00,mcc,61.97
2023-11-14T12:01:00,mcc,60.75
2023-11-14T12:02:00,mcc,59.93
2023-11-14T12:03:00,mcc,63.59
2023-11-14T12:04:00,mcc,63.16
2023-11-14T12:05:00,mcc,60.54
2023-11-14T12:06:00,mcc,60.34
2023-11-14T12:07:00,mcc,58.08
2023-11-14T12:08:00,mcc,62.33
2023-11-14T12:09:00,mcc,68.27
2023-11-14T12:10:00,mcc,58.36
2023-11-14T12:11:00,mcc,61.80
2023-11-14T12:12:00,mcc,61.49
2023-11-14T12:13:00,mcc,64.73
2023-11-14T12:14:00,mcc,80.18
2023-11-14T12:15:00,mcc,64.51
2023-11-14T12:16:00,mcc,63.89
2023-11-14T12:17:00,mcc,65.11
2023-11-14T12:18:00,mcc,67.45
2023-11-14T12:19:00,mcc,58.82
2023-11-14T12:20:00,mcc,64.25
2023-11-14T12:21:00,mcc,62.09
2023-11-14T12:22:00,mcc,62.92
2023-11-14T12:23:00,mcc,59.54
2023-11-14T12:24:00,mcc,70.28
2023-11-14T12:25:00,mcc,64.37
2023-11-14T12:26:00,mcc,63.86
2023-11-14T12:27:00,mcc,61.22
2023-11-14T12:28:00,mcc,61.73
2023-11-14T12:29:00,mcc,71.64
2023-11-14T12:30:00,mcc,61.28
2023-11-14T12:31:00,mcc,60.10
2023-11-14T12:32:00,mcc,66.03
2023-11-14T12:33:00,mcc,59.38
2023-11-14T12:34:00,mcc,68.91
2023-11-14T12:35:00,mcc,63.99
2023-11-14T12:36:00,mcc,60.26
2023-11-14T12:37:00,mcc,62.15
2023-11-14T12:38:00,mcc,61.53
2023-11-14T12:39:00,mcc,63.64
2023-11-14T12:40:00,mcc,62.30
2023-11-14T12:41:00,mcc,67.07
2023-11-14T12:42:00,mcc,65.73
2023-11-14T12:43:00,mcc,63.33
2023-11-14T12:44:00,mcc,60.73
2023-11-14T12:45:00,mcc,57.19
2023-11-14T12:46:00,mcc,56.96
2023-11-14T12:47:00,mcc,58.48
2023-11-14T12:48:00,mcc,63.57
2023-11-14T12:49:00,mcc,65.13
2023-11-14T12:50:00,mcc,61.07
2023-11-14T12:51:00,mcc,58.13
2023-11-14T12:52:00,mcc,64.38
2023-11-14T12:53:00,mcc,57.52
2023-11-14T12:54:00,mcc,57.17
2023-11-14T12:55:00,mcc,61.20
2023-11-14T12:56:00,mcc,57.53
2023-11-14T12:57:00,mcc,59.98
2023-11-14T12:58:00,mcc,56.28
2023-11-14T12:59:00,mcc,57.84
2023-11-14T13:00:00,mcc,73.22
2023-11-14T13:01:00,mcc,57.14
2023-11-14T13:02:00,mcc,59.63
2023-11-14T13:03:00,mcc,67.60
2023-11-14T13:04:00,mcc,66.25
2023-11-14T13:05:00,mcc,61.52
2023-11-14T13:06:00,mcc,61.46
2023-11-14T13:07:00,mcc,62.35
2023-11-14T13:08:00,mcc,72.57
2023-11-14T13:09:00,mcc,62.28
2023-11-14T13:10:00,mcc,62.50
2023-11-14T13:11:00,mcc,63.49
2023-11-14T13:12:00,mcc,67.20
2023-11-14T13:13:00,mcc,57.16
2023-11-14T13:14:00,mcc,57.17
2023-11-14T13:15:00,mcc,59.93
2023-11-14T13:16:00,mcc,62.56
2023-11-14T13:17:00,mcc,59.59
2023-11-14T13:18:00,mcc,72.26